Time,TemperatureF,DewpointF,PressureIn,WindDirection,WindDirectionDegrees,WindSpeedMPH,WindSpeedGustMPH,Humidity,HourlyPrecipIn,Conditions,Clouds,dailyrainin,SolarRadiationWatts/m^2,SoftwareType,DateUTC
2013-02-17 00:00:00,41.3,37.4,30.06,NW,311,0.0,2.0,86,0.00,,,0.00,0,Wunderground v.1.15,2013-02-17 08:00:00,
2013-02-17 00:06:00,41.2,37.3,30.07,NW,311,0.0,2.0,86,0.00,,,0.00,0,Wunderground v.1.15,2013-02-17 08:06:00,
2013-02-17 00:12:00,41.0,37.1,30.07,NW,311,0.0,2.0,86,0.00,,,0.00,0,Wunderground v.1.15,2013-02-17 08:12:00,
2013-02-17 00:18:00,41.0,37.4,30.07,NW,311,0.0,2.0,87,0.00,,,0.00,0,Wunderground v.1.15,2013-02-17 08:18:00,
2013-02-17 00:24:00,40.9,37.3,30.07,NW,311,0.0,2.0,87,0.00,,,0.00,0,Wunderground v.1.15,2013-02-17 08:24:00,
2013-02-17 00:30:00,40.7,37.1,30.06,NW,311,0.0,2.0,87,0.00,,,0.00,0,Wunderground v.1.15,2013-02-17 08:30:00,
2013-02-17 00:36:00,40.6,37.3,30.06,NW,311,0.0,2.0,88,0.00,,,0.00,0,Wunderground v.1.15,2013-02-17 08:36:00,
2013-02-17 00:42:00,40.4,36.8,30.06,NW,311,0.0,2.0,87,0.00,,,0.00,0,Wunderground v.1.15,2013-02-17 08:42:00,
2013-02-17 00:48:00,40.2,36.6,30.06,NW,311,0.0,2.0,87,0.00,,,0.00,0,Wunderground v.1.15,2013-02-17 08:48:00,
2013-02-17 00:54:00,40.1,36.8,30.06,NW,311,0.0,2.0,88,0.00,,,0.00,0,Wunderground v.1.15,2013-02-17 08:54:00,
2013-02-17 01:00:00,39.8,36.2,30.06,NW,311,0.0,1.0,87,0.00,,,0.00,0,Wunderground v.1.15,2013-02-17 09:00:00,
2013-02-17 01:06:00,39.6,36.0,30.06,NW,311,0.0,1.0,87,0.00,,,0.00,0,Wunderground v.1.15,2013-02-17 09:06:00,
2013-02-17 01:12:00,39.3,36.0,30.06,NW,311,0.0,1.0,88,0.00,,,0.00,0,Wunderground v.1.15,2013-02-17 09:12:00,
2013-02-17 01:18:00,39.1,35.8,30.06,NW,311,0.0,1.0,88,0.00,,,0.00,0,Wunderground v.1.15,2013-02-17 09:18:00,
2013-02-17 01:24:00,38.9,35.6,30.06,NW,311,0.0,1.0,88,0.00,,,0.00,0,Wunderground v.1.15,2013-02-17 09:24:00,
2013-02-17 01:30:00,38.8,35.6,30.06,NW,311,0.0,1.0,88,0.00,,,0.00,0,Wunderground v.1.15,2013-02-17 09:30:00,
2013-02-17 01:36:00,38.7,35.5,30.06,NW,311,0.0,1.0,88,0.00,,,0.00,0,Wunderground v.1.15,2013-02-17 09:36:00,
2013-02-17 01:42:00,38.6,35.4,30.05,NW,311,0.0,1.0,88,0.00,,,0.00,0,Wunderground v.1.15,2013-02-17 09:42:00,
2013-02-17 01:47:00,38.4,35.2,30.05,NW,311,0.0,2.0,88,0.00,,,0.00,0,Wunderground v.1.15,2013-02-17 09:47:00,
2013-02-17 01:53:00,38.3,35.1,30.05,NW,311,0.0,1.0,88,0.00,,,0.00,0,Wunderground v.1.15,2013-02-17 09:53:00,
2013-02-17 02:00:00,38.2,35.2,30.05,NW,311,0.0,1.0,89,0.00,,,0.00,0,Wunderground v.1.15,2013-02-17 10:00:00,
2013-02-17 02:06:00,38.1,35.1,30.05,NW,311,0.0,1.0,89,0.00,,,0.00,0,Wunderground v.1.15,2013-02-17 10:06:00,
2013-02-17 02:12:00,38.0,35.0,30.05,NW,311,0.0,1.0,89,0.00,,,0.00,0,Wunderground v.1.15,2013-02-17 10:12:00,
2013-02-17 02:17:00,37.8,34.8,30.05,NW,311,0.0,1.0,89,0.00,,,0.00,0,Wunderground v.1.15,2013-02-17 10:17:00,
2013-02-17 02:23:00,37.6,34.7,30.05,NW,311,0.0,1.0,89,0.00,,,0.00,0,Wunderground v.1.15,2013-02-17 10:23:00,
2013-02-17 02:29:00,37.5,34.6,30.05,NW,311,0.0,1.0,89,0.00,,,0.00,0,Wunderground v.1.15,2013-02-17 10:29:00,
2013-02-17 02:36:00,37.4,34.5,30.05,NW,311,0.0,1.0,89,0.00,,,0.00,0,Wunderground v.1.15,2013-02-17 10:36:00,
2013-02-17 02:41:00,37.4,34.5,30.05,NW,311,0.0,1.0,89,0.00,,,0.00,0,Wunderground v.1.15,2013-02-17 10:41:00,
2013-02-17 02:48:00,37.4,34.7,30.05,NW,311,0.0,1.0,90,0.00,,,0.00,0,Wunderground v.1.15,2013-02-17 10:48:00,
2013-02-17 02:54:00,37.4,34.7,30.04,NW,311,0.0,1.0,90,0.00,,,0.00,0,Wunderground v.1.15,2013-02-17 10:54:00,
2013-02-17 03:00:00,37.3,34.6,30.04,NW,311,0.0,2.0,90,0.00,,,0.00,0,Wunderground v.1.15,2013-02-17 11:00:00,
2013-02-17 03:06:00,37.2,34.5,30.03,NW,311,0.0,2.0,90,0.00,,,0.00,0,Wunderground v.1.15,2013-02-17 11:06:00,
2013-02-17 03:12:00,37.1,34.4,30.03,NW,311,0.0,2.0,90,0.00,,,0.00,0,Wunderground v.1.15,2013-02-17 11:12:00,
2013-02-17 03:18:00,36.9,34.2,30.03,NW,311,0.0,2.0,90,0.00,,,0.00,0,Wunderground v.1.15,2013-02-17 11:18:00,
2013-02-17 03:24:00,36.8,34.1,30.03,NW,311,0.0,2.0,90,0.00,,,0.00,0,Wunderground v.1.15,2013-02-17 11:24:00,
2013-02-17 03:30:00,36.6,33.9,30.03,NW,311,0.0,2.0,90,0.00,,,0.00,0,Wunderground v.1.15,2013-02-17 11:30:00,
2013-02-17 03:36:00,36.5,33.8,30.03,NW,311,0.0,2.0,90,0.00,,,0.00,0,Wunderground v.1.15,2013-02-17 11:36:00,
2013-02-17 03:42:00,36.3,33.6,30.02,NW,311,0.0,2.0,90,0.00,,,0.00,0,Wunderground v.1.15,2013-02-17 11:42:00,
2013-02-17 03:48:00,36.3,33.6,30.02,NW,311,0.0,2.0,90,0.00,,,0.00,0,Wunderground v.1.15,2013-02-17 11:48:00,
2013-02-17 03:54:00,36.2,33.5,30.03,NW,311,0.0,2.0,90,0.00,,,0.00,0,Wunderground v.1.15,2013-02-17 11:54:00,
2013-02-17 04:00:00,36.1,33.7,30.03,NW,311,0.0,2.0,91,0.00,,,0.00,0,Wunderground v.1.15,2013-02-17 12:00:00,
2013-02-17 04:06:00,36.0,33.6,30.03,NW,311,0.0,2.0,91,0.00,,,0.00,0,Wunderground v.1.15,2013-02-17 12:06:00,
2013-02-17 04:12:00,36.0,33.6,30.02,NW,311,0.0,2.0,91,0.00,,,0.00,0,Wunderground v.1.15,2013-02-17 12:12:00,
2013-02-17 04:18:00,35.9,33.5,30.03,NW,311,0.0,2.0,91,0.00,,,0.00,0,Wunderground v.1.15,2013-02-17 12:18:00,
2013-02-17 04:24:00,35.7,33.3,30.03,NW,311,0.0,2.0,91,0.00,,,0.00,0,Wunderground v.1.15,2013-02-17 12:24:00,
2013-02-17 04:30:00,35.6,33.2,30.03,NW,311,0.0,2.0,91,0.00,,,0.00,0,Wunderground v.1.15,2013-02-17 12:30:00,
2013-02-17 04:36:00,35.5,33.1,30.03,NW,311,0.0,2.0,91,0.00,,,0.00,0,Wunderground v.1.15,2013-02-17 12:36:00,
2013-02-17 04:41:00,35.4,33.0,30.02,NW,311,0.0,2.0,91,0.00,,,0.00,0,Wunderground v.1.15,2013-02-17 12:41:00,
2013-02-17 04:47:00,35.3,32.9,30.03,NW,311,0.0,2.0,91,0.00,,,0.00,0,Wunderground v.1.15,2013-02-17 12:47:00,
2013-02-17 04:54:00,35.1,32.7,30.03,NW,311,0.0,2.0,91,0.00,,,0.00,0,Wunderground v.1.15,2013-02-17 12:54:00,
2013-02-17 05:00:00,35.0,32.6,30.02,NW,311,0.0,1.0,91,0.00,,,0.00,0,Wunderground v.1.15,2013-02-17 13:00:00,
2013-02-17 05:06:00,34.8,32.4,30.03,NW,311,0.0,1.0,91,0.00,,,0.00,0,Wunderground v.1.15,2013-02-17 13:06:00,
2013-02-17 05:12:00,34.7,32.3,30.03,NW,311,0.0,1.0,91,0.00,,,0.00,0,Wunderground v.1.15,2013-02-17 13:12:00,
2013-02-17 05:18:00,34.6,32.2,30.03,NW,311,0.0,1.0,91,0.00,,,0.00,0,Wunderground v.1.15,2013-02-17 13:18:00,
2013-02-17 05:24:00,34.5,32.1,30.03,NW,311,0.0,1.0,91,0.00,,,0.00,0,Wunderground v.1.15,2013-02-17 13:24:00,
2013-02-17 05:30:00,34.4,32.0,30.04,NW,311,0.0,1.0,91,0.00,,,0.00,0,Wunderground v.1.15,2013-02-17 13:30:00,
2013-02-17 05:35:00,34.5,32.1,30.04,NW,311,0.0,1.0,91,0.00,,,0.00,0,Wunderground v.1.15,2013-02-17 13:35:00,
2013-02-17 05:42:00,34.5,32.4,30.04,NW,311,0.0,1.0,92,0.00,,,0.00,0,Wunderground v.1.15,2013-02-17 13:42:00,
2013-02-17 05:48:00,34.4,32.3,30.04,NW,311,0.0,1.0,92,0.00,,,0.00,0,Wunderground v.1.15,2013-02-17 13:48:00,
2013-02-17 05:53:00,34.4,32.3,30.04,NW,311,0.0,1.0,92,0.00,,,0.00,0,Wunderground v.1.15,2013-02-17 13:53:00,
2013-02-17 06:00:00,34.2,32.1,30.04,NW,311,0.0,1.0,92,0.00,,,0.00,0,Wunderground v.1.15,2013-02-17 14:00:00,
2013-02-17 06:06:00,34.0,31.6,30.04,NW,311,0.0,1.0,91,0.00,,,0.00,0,Wunderground v.1.15,2013-02-17 14:06:00,
2013-02-17 06:12:00,33.9,31.8,30.05,NW,311,0.0,1.0,92,0.00,,,0.00,0,Wunderground v.1.15,2013-02-17 14:12:00,
2013-02-17 06:17:00,33.9,31.8,30.04,NW,311,0.0,1.0,92,0.00,,,0.01,0,Wunderground v.1.15,2013-02-17 14:17:00,
2013-02-17 06:24:00,33.9,31.8,30.04,NW,311,0.0,1.0,92,0.00,,,0.01,0,Wunderground v.1.15,2013-02-17 14:24:00,
2013-02-17 06:30:00,33.9,31.8,30.04,NW,311,0.0,1.0,92,0.00,,,0.01,0,Wunderground v.1.15,2013-02-17 14:30:00,
2013-02-17 06:36:00,33.8,31.7,30.04,NW,311,0.0,1.0,92,0.00,,,0.01,0,Wunderground v.1.15,2013-02-17 14:36:00,
2013-02-17 06:41:00,33.7,31.6,30.04,NW,311,0.0,1.0,92,0.00,,,0.00,0,Wunderground v.1.15,2013-02-17 14:41:00,
2013-02-17 06:48:00,33.5,31.4,30.05,NW,311,0.0,1.0,92,0.00,,,0.00,0,Wunderground v.1.15,2013-02-17 14:48:00,
2013-02-17 06:54:00,33.4,31.3,30.05,NW,311,0.0,1.0,92,0.00,,,0.00,0,Wunderground v.1.15,2013-02-17 14:54:00,
2013-02-17 07:00:00,33.3,31.2,30.05,NW,311,0.0,1.0,92,0.00,,,0.00,5,Wunderground v.1.15,2013-02-17 15:00:00,
2013-02-17 07:06:00,33.2,31.1,30.05,NW,311,0.0,1.0,92,0.00,,,0.00,9,Wunderground v.1.15,2013-02-17 15:06:00,
2013-02-17 07:12:00,33.2,31.1,30.05,NW,311,0.0,1.0,92,0.00,,,0.00,12,Wunderground v.1.15,2013-02-17 15:12:00,
2013-02-17 07:18:00,33.2,31.1,30.05,NW,311,0.0,1.0,92,0.00,,,0.00,16,Wunderground v.1.15,2013-02-17 15:18:00,
2013-02-17 07:24:00,33.1,31.0,30.05,NW,311,0.0,1.0,92,0.00,,,0.00,21,Wunderground v.1.15,2013-02-17 15:24:00,
2013-02-17 07:30:00,33.2,31.1,30.05,NW,311,0.0,1.0,92,0.00,,,0.00,32,Wunderground v.1.15,2013-02-17 15:30:00,
2013-02-17 07:35:00,33.4,31.3,30.05,NW,311,0.0,1.0,92,0.00,,,0.00,44,Wunderground v.1.15,2013-02-17 15:35:00,
2013-02-17 07:41:00,33.7,31.9,30.05,NW,311,0.0,1.0,93,0.00,,,0.00,54,Wunderground v.1.15,2013-02-17 15:41:00,
2013-02-17 07:48:00,34.3,32.5,30.05,NW,311,0.0,1.0,93,0.00,,,0.00,74,Wunderground v.1.15,2013-02-17 15:48:00,
2013-02-17 07:54:00,34.8,33.0,30.05,NW,311,0.0,1.0,93,0.00,,,0.00,91,Wunderground v.1.15,2013-02-17 15:54:00,
2013-02-17 08:00:00,35.4,33.6,30.05,NW,311,0.0,2.0,93,0.00,,,0.00,109,Wunderground v.1.15,2013-02-17 16:00:00,
2013-02-17 08:06:00,35.9,34.1,30.05,NW,311,0.0,2.0,93,0.00,,,0.00,128,Wunderground v.1.15,2013-02-17 16:06:00,
2013-02-17 08:12:00,36.6,35.0,30.05,NW,311,0.0,2.0,94,0.00,,,0.00,148,Wunderground v.1.15,2013-02-17 16:12:00,
2013-02-17 08:18:00,37.4,35.8,30.05,NW,311,0.0,2.0,94,0.00,,,0.00,167,Wunderground v.1.15,2013-02-17 16:18:00,
2013-02-17 08:23:00,38.4,36.8,30.05,NW,311,1.0,2.0,94,0.00,,,0.00,185,Wunderground v.1.15,2013-02-17 16:23:00,
2013-02-17 08:29:00,39.4,37.8,30.05,NW,306,1.0,2.0,94,0.00,,,0.00,206,Wunderground v.1.15,2013-02-17 16:29:00,
2013-02-17 08:36:00,40.5,39.2,30.05,ENE,78,1.0,2.0,95,0.00,,,0.00,223,Wunderground v.1.15,2013-02-17 16:36:00,
2013-02-17 08:42:00,41.3,39.7,30.06,East,79,1.0,2.0,94,0.00,,,0.00,241,Wunderground v.1.15,2013-02-17 16:42:00,
2013-02-17 08:48:00,41.9,40.3,30.06,East,79,1.0,2.0,94,0.00,,,0.00,257,Wunderground v.1.15,2013-02-17 16:48:00,
2013-02-17 08:54:00,42.8,41.2,30.06,East,79,0.0,2.0,94,0.00,,,0.00,274,Wunderground v.1.15,2013-02-17 16:54:00,
2013-02-17 09:00:00,43.8,41.9,30.06,East,79,0.0,4.0,93,0.00,,,0.00,294,Wunderground v.1.15,2013-02-17 17:00:00,
2013-02-17 09:06:00,44.6,42.4,30.07,East,79,0.0,4.0,92,0.00,,,0.00,311,Wunderground v.1.15,2013-02-17 17:06:00,
2013-02-17 09:12:00,45.4,42.9,30.07,East,79,0.0,4.0,91,0.00,,,0.00,329,Wunderground v.1.15,2013-02-17 17:12:00,
2013-02-17 09:18:00,46.2,42.8,30.07,East,79,0.0,4.0,88,0.00,,,0.00,343,Wunderground v.1.15,2013-02-17 17:18:00,
2013-02-17 09:23:00,47.1,42.8,30.07,East,79,0.0,4.0,85,0.00,,,0.00,360,Wunderground v.1.15,2013-02-17 17:23:00,
2013-02-17 09:30:00,48.0,43.1,30.07,East,79,0.0,4.0,83,0.00,,,0.00,376,Wunderground v.1.15,2013-02-17 17:30:00,
2013-02-17 09:36:00,48.8,42.9,30.07,East,79,0.0,4.0,80,0.00,,,0.00,399,Wunderground v.1.15,2013-02-17 17:36:00,
2013-02-17 09:42:00,49.6,43.0,30.07,ENE,77,0.0,4.0,78,0.00,,,0.00,424,Wunderground v.1.15,2013-02-17 17:42:00,
2013-02-17 09:48:00,50.7,42.7,30.07,ENE,77,0.0,4.0,74,0.00,,,0.00,439,Wunderground v.1.15,2013-02-17 17:48:00,
2013-02-17 09:54:00,51.6,42.1,30.07,East,82,0.0,4.0,70,0.00,,,0.00,457,Wunderground v.1.15,2013-02-17 17:54:00,
2013-02-17 10:00:00,52.2,42.3,30.07,SE,132,1.0,1.0,69,0.00,,,0.00,471,Wunderground v.1.15,2013-02-17 18:00:00,
2013-02-17 10:06:00,52.6,41.9,30.07,SE,132,0.0,2.0,67,0.00,,,0.00,483,Wunderground v.1.15,2013-02-17 18:06:00,
2013-02-17 10:12:00,53.2,42.5,30.07,SE,134,1.0,2.0,67,0.00,,,0.00,497,Wunderground v.1.15,2013-02-17 18:12:00,
2013-02-17 10:18:00,53.8,43.1,30.06,SE,134,1.0,2.0,67,0.00,,,0.00,512,Wunderground v.1.15,2013-02-17 18:18:00,
2013-02-17 10:24:00,54.3,42.8,30.07,SSE,147,1.0,2.0,65,0.00,,,0.00,524,Wunderground v.1.15,2013-02-17 18:24:00,
2013-02-17 10:30:00,54.7,43.2,30.07,SSE,148,1.0,2.0,65,0.00,,,0.00,534,Wunderground v.1.15,2013-02-17 18:30:00,
2013-02-17 10:35:00,54.7,42.8,30.07,NE,56,1.0,4.0,64,0.00,,,0.00,547,Wunderground v.1.15,2013-02-17 18:35:00,
2013-02-17 10:42:00,55.2,43.6,30.07,ENE,61,1.0,2.0,65,0.00,,,0.00,555,Wunderground v.1.15,2013-02-17 18:42:00,
2013-02-17 10:47:00,55.7,43.7,30.06,ENE,71,0.0,2.0,64,0.00,,,0.00,566,Wunderground v.1.15,2013-02-17 18:47:00,
2013-02-17 10:54:00,56.4,44.0,30.06,ESE,122,1.0,4.0,63,0.00,,,0.00,575,Wunderground v.1.15,2013-02-17 18:54:00,
2013-02-17 11:00:00,56.8,44.3,30.06,ESE,117,1.0,5.0,63,0.00,,,0.00,585,Wunderground v.1.15,2013-02-17 19:00:00,
2013-02-17 11:06:00,57.1,44.2,30.06,ESE,117,1.0,5.0,62,0.00,,,0.00,594,Wunderground v.1.15,2013-02-17 19:06:00,
2013-02-17 11:12:00,57.5,44.6,30.06,ESE,120,1.0,5.0,62,0.00,,,0.00,603,Wunderground v.1.15,2013-02-17 19:12:00,
2013-02-17 11:18:00,57.8,44.4,30.06,ESE,120,1.0,5.0,61,0.00,,,0.00,612,Wunderground v.1.15,2013-02-17 19:18:00,
2013-02-17 11:24:00,58.6,44.8,30.06,ESE,117,1.0,5.0,60,0.00,,,0.00,617,Wunderground v.1.15,2013-02-17 19:24:00,
2013-02-17 11:29:00,58.9,44.1,30.05,ESE,119,1.0,5.0,58,0.00,,,0.00,626,Wunderground v.1.15,2013-02-17 19:29:00,
2013-02-17 11:36:00,59.1,44.8,30.05,ESE,123,1.0,5.0,59,0.00,,,0.00,631,Wunderground v.1.15,2013-02-17 19:36:00,
2013-02-17 11:42:00,59.9,44.6,30.05,West,264,1.0,5.0,57,0.00,,,0.00,638,Wunderground v.1.15,2013-02-17 19:42:00,
2013-02-17 11:48:00,60.4,44.6,30.05,NNW,335,1.0,5.0,56,0.00,,,0.00,642,Wunderground v.1.15,2013-02-17 19:48:00,
2013-02-17 11:54:00,60.6,44.8,30.04,NNE,16,2.0,5.0,56,0.00,,,0.00,643,Wunderground v.1.15,2013-02-17 19:54:00,
2013-02-17 12:00:00,60.7,44.4,30.04,NNW,331,3.0,3.0,55,0.00,,,0.00,647,Wunderground v.1.15,2013-02-17 20:00:00,
2013-02-17 12:06:00,61.4,44.6,30.04,NNW,328,2.0,4.0,54,0.00,,,0.00,650,Wunderground v.1.15,2013-02-17 20:06:00,
2013-02-17 12:12:00,61.7,44.9,30.04,NNW,346,1.0,4.0,54,0.00,,,0.00,647,Wunderground v.1.15,2013-02-17 20:12:00,
2013-02-17 12:17:00,62.4,45.0,30.04,SW,221,1.0,4.0,53,0.00,,,0.00,649,Wunderground v.1.15,2013-02-17 20:17:00,
2013-02-17 12:24:00,62.6,44.7,30.03,WNW,295,3.0,6.0,52,0.00,,,0.00,652,Wunderground v.1.15,2013-02-17 20:24:00,
2013-02-17 12:30:00,62.7,44.3,30.03,West,281,3.0,5.0,51,0.00,,,0.00,652,Wunderground v.1.15,2013-02-17 20:30:00,
2013-02-17 12:35:00,62.7,44.3,30.03,West,261,3.0,6.0,51,0.00,,,0.00,650,Wunderground v.1.15,2013-02-17 20:35:00,
2013-02-17 12:42:00,62.6,44.2,30.03,NW,304,4.0,6.0,51,0.00,,,0.00,649,Wunderground v.1.15,2013-02-17 20:42:00,
2013-02-17 12:48:00,62.6,43.7,30.02,NW,310,4.0,6.0,50,0.00,,,0.00,649,Wunderground v.1.15,2013-02-17 20:48:00,
2013-02-17 12:54:00,62.7,43.8,30.02,WNW,299,4.0,5.0,50,0.00,,,0.00,645,Wunderground v.1.15,2013-02-17 20:54:00,
2013-02-17 13:00:00,62.9,43.4,30.01,NNW,329,3.0,3.0,49,0.00,,,0.00,640,Wunderground v.1.15,2013-02-17 21:00:00,
2013-02-17 13:06:00,63.0,43.5,30.01,NNW,337,4.0,9.0,49,0.00,,,0.00,640,Wunderground v.1.15,2013-02-17 21:06:00,
2013-02-17 13:11:00,63.3,43.8,30.01,WNW,296,4.0,9.0,49,0.00,,,0.00,635,Wunderground v.1.15,2013-02-17 21:11:00,
2013-02-17 13:18:00,63.6,43.5,30.01,NW,317,4.0,9.0,48,0.00,,,0.00,629,Wunderground v.1.15,2013-02-17 21:18:00,
2013-02-17 13:24:00,63.6,44.1,30.01,NNW,327,5.0,9.0,49,0.00,,,0.00,624,Wunderground v.1.15,2013-02-17 21:24:00,
2013-02-17 13:30:00,63.8,43.7,30.01,NNW,345,4.0,9.0,48,0.00,,,0.00,617,Wunderground v.1.15,2013-02-17 21:30:00,
2013-02-17 13:36:00,63.8,44.3,30.01,NNW,334,4.0,9.0,49,0.00,,,0.00,610,Wunderground v.1.15,2013-02-17 21:36:00,
2013-02-17 13:41:00,63.9,44.4,30.00,NW,308,5.0,9.0,49,0.00,,,0.00,603,Wunderground v.1.15,2013-02-17 21:41:00,
2013-02-17 13:48:00,63.8,44.3,30.00,WNW,288,5.0,9.0,49,0.00,,,0.00,594,Wunderground v.1.15,2013-02-17 21:48:00,
2013-02-17 13:54:00,63.8,44.8,30.00,NNW,336,6.0,9.0,50,0.00,,,0.00,582,Wunderground v.1.15,2013-02-17 21:54:00,
2013-02-17 14:00:00,63.7,44.2,30.00,NW,326,7.0,7.0,49,0.00,,,0.00,575,Wunderground v.1.15,2013-02-17 22:00:00,
2013-02-17 14:06:00,63.8,44.8,30.00,WNW,284,6.0,10.0,50,0.00,,,0.00,566,Wunderground v.1.15,2013-02-17 22:06:00,
2013-02-17 14:11:00,64.1,45.1,30.00,WNW,299,4.0,10.0,50,0.00,,,0.00,557,Wunderground v.1.15,2013-02-17 22:11:00,
2013-02-17 14:18:00,64.4,45.3,30.00,NW,311,4.0,10.0,50,0.00,,,0.00,548,Wunderground v.1.15,2013-02-17 22:18:00,
2013-02-17 14:24:00,64.7,45.6,30.00,WSW,238,4.0,10.0,50,0.00,,,0.00,534,Wunderground v.1.15,2013-02-17 22:24:00,
2013-02-17 14:29:00,64.8,45.2,30.00,NW,313,3.0,3.0,49,0.00,,,0.00,524,Wunderground v.1.15,2013-02-17 22:29:00,
2013-02-17 14:35:00,64.9,45.3,30.00,West,261,2.0,10.0,49,0.00,,,0.00,510,Wunderground v.1.15,2013-02-17 22:35:00,
2013-02-17 14:41:00,65.1,44.9,30.00,SSW,202,2.0,10.0,48,0.00,,,0.00,499,Wunderground v.1.15,2013-02-17 22:41:00,
2013-02-17 14:48:00,64.8,44.6,29.99,SSW,198,2.0,10.0,48,0.00,,,0.00,487,Wunderground v.1.15,2013-02-17 22:48:00,
2013-02-17 14:54:00,64.8,44.1,29.99,WNW,291,3.0,10.0,47,0.00,,,0.00,473,Wunderground v.1.15,2013-02-17 22:54:00,
2013-02-17 15:00:00,65.1,44.4,29.99,West,273,2.0,10.0,47,0.00,,,0.00,459,Wunderground v.1.15,2013-02-17 23:00:00,
2013-02-17 15:06:00,65.2,43.9,30.00,WSW,243,2.0,10.0,46,0.00,,,0.00,445,Wunderground v.1.15,2013-02-17 23:06:00,
2013-02-17 15:12:00,64.9,44.2,30.00,West,278,3.0,10.0,47,0.00,,,0.00,427,Wunderground v.1.15,2013-02-17 23:12:00,
2013-02-17 15:17:00,64.9,43.6,30.00,NW,314,3.0,10.0,46,0.00,,,0.00,415,Wunderground v.1.15,2013-02-17 23:17:00,
2013-02-17 15:23:00,64.6,43.9,29.99,West,275,2.0,10.0,47,0.00,,,0.00,396,Wunderground v.1.15,2013-02-17 23:23:00,
2013-02-17 15:30:00,64.6,43.3,29.99,WSW,249,2.0,10.0,46,0.00,,,0.00,381,Wunderground v.1.15,2013-02-17 23:30:00,
2013-02-17 15:35:00,64.5,43.3,29.99,WSW,240,3.0,10.0,46,0.00,,,0.00,364,Wunderground v.1.15,2013-02-17 23:35:00,
2013-02-17 15:42:00,64.1,42.9,29.99,West,269,3.0,10.0,46,0.00,,,0.00,348,Wunderground v.1.15,2013-02-17 23:42:00,
2013-02-17 15:48:00,63.8,42.0,29.99,WSW,244,3.0,10.0,45,0.00,,,0.00,330,Wunderground v.1.15,2013-02-17 23:48:00,
2013-02-17 15:54:00,63.5,41.8,29.99,SW,214,2.0,10.0,45,0.00,,,0.00,313,Wunderground v.1.15,2013-02-17 23:54:00,
2013-02-17 16:00:00,63.4,41.7,29.99,WSW,243,2.0,7.0,45,0.00,,,0.00,297,Wunderground v.1.15,2013-02-18 00:00:00,
2013-02-17 16:05:00,62.9,41.2,29.99,WSW,257,3.0,7.0,45,0.00,,,0.00,276,Wunderground v.1.15,2013-02-18 00:05:00,
2013-02-17 16:11:00,62.6,41.5,29.99,WSW,250,2.0,6.0,46,0.00,,,0.00,255,Wunderground v.1.15,2013-02-18 00:11:00,
2013-02-17 16:17:00,62.4,40.8,29.99,WSW,248,2.0,7.0,45,0.00,,,0.00,234,Wunderground v.1.15,2013-02-18 00:17:00,
2013-02-17 16:23:00,62.1,40.5,29.99,SW,215,2.0,8.0,45,0.00,,,0.00,211,Wunderground v.1.15,2013-02-18 00:23:00,
2013-02-17 16:29:00,61.9,39.7,29.99,WSW,255,2.0,7.0,44,0.00,,,0.00,190,Wunderground v.1.15,2013-02-18 00:29:00,
2013-02-17 16:35:00,61.6,39.5,29.99,West,277,2.0,7.0,44,0.00,,,0.00,167,Wunderground v.1.15,2013-02-18 00:35:00,
2013-02-17 16:42:00,61.3,39.8,29.99,SW,236,2.0,7.0,45,0.00,,,0.00,144,Wunderground v.1.15,2013-02-18 00:42:00,
2013-02-17 16:48:00,61.2,39.1,29.99,West,259,1.0,7.0,44,0.00,,,0.00,123,Wunderground v.1.15,2013-02-18 00:48:00,
2013-02-17 16:54:00,61.0,39.5,29.99,WSW,246,1.0,7.0,45,0.00,,,0.00,102,Wunderground v.1.15,2013-02-18 00:54:00,
2013-02-17 17:00:00,60.7,39.2,29.99,WSW,252,1.0,1.0,45,0.00,,,0.00,83,Wunderground v.1.15,2013-02-18 01:00:00,
2013-02-17 17:06:00,60.2,39.3,29.99,SW,215,1.0,9.0,46,0.00,,,0.00,35,Wunderground v.1.15,2013-02-18 01:06:00,
2013-02-17 17:12:00,60.0,39.1,29.99,West,259,0.0,9.0,46,0.00,,,0.00,26,Wunderground v.1.15,2013-02-18 01:12:00,
2013-02-17 17:18:00,59.6,38.8,29.99,SW,232,1.0,9.0,46,0.00,,,0.00,25,Wunderground v.1.15,2013-02-18 01:18:00,
2013-02-17 17:24:00,59.3,38.5,29.99,SW,232,0.0,9.0,46,0.00,,,0.00,21,Wunderground v.1.15,2013-02-18 01:24:00,
2013-02-17 17:30:00,58.9,38.7,29.99,SW,232,0.0,9.0,47,0.00,,,0.00,19,Wunderground v.1.15,2013-02-18 01:30:00,
2013-02-17 17:36:00,58.5,38.9,29.99,SW,232,0.0,9.0,48,0.00,,,0.00,14,Wunderground v.1.15,2013-02-18 01:36:00,
2013-02-17 17:42:00,58.1,38.5,29.99,SW,232,0.0,9.0,48,0.00,,,0.00,12,Wunderground v.1.15,2013-02-18 01:42:00,
2013-02-17 17:48:00,57.7,38.1,29.99,SW,232,0.0,9.0,48,0.00,,,0.00,7,Wunderground v.1.15,2013-02-18 01:48:00,
2013-02-17 17:54:00,57.3,38.3,29.99,SW,232,0.0,9.0,49,0.00,,,0.00,0,Wunderground v.1.15,2013-02-18 01:54:00,
2013-02-17 18:00:00,56.8,38.9,29.99,SW,232,0.0,5.0,51,0.00,,,0.00,0,Wunderground v.1.15,2013-02-18 02:00:00,
2013-02-17 18:06:00,56.4,39.0,29.99,SW,232,0.0,5.0,52,0.00,,,0.00,0,Wunderground v.1.15,2013-02-18 02:06:00,
2013-02-17 18:12:00,55.8,38.9,30.00,SW,232,0.0,5.0,53,0.00,,,0.00,0,Wunderground v.1.15,2013-02-18 02:12:00,
2013-02-17 18:18:00,55.4,39.0,30.00,SW,232,0.0,5.0,54,0.00,,,0.00,0,Wunderground v.1.15,2013-02-18 02:18:00,
2013-02-17 18:24:00,54.8,39.4,30.00,SW,232,0.0,5.0,56,0.00,,,0.00,0,Wunderground v.1.15,2013-02-18 02:24:00,
2013-02-17 18:30:00,54.1,39.2,29.99,SW,232,0.0,5.0,57,0.00,,,0.00,0,Wunderground v.1.15,2013-02-18 02:30:00,
2013-02-17 18:36:00,53.3,39.3,30.00,SW,232,0.0,5.0,59,0.00,,,0.00,0,Wunderground v.1.15,2013-02-18 02:36:00,
2013-02-17 18:42:00,52.8,39.3,30.00,SW,232,0.0,5.0,60,0.00,,,0.00,0,Wunderground v.1.15,2013-02-18 02:42:00,
2013-02-17 18:48:00,52.2,39.1,30.00,SW,232,0.0,5.0,61,0.00,,,0.00,0,Wunderground v.1.15,2013-02-18 02:48:00,
2013-02-17 18:54:00,51.5,39.7,30.00,SW,232,0.0,5.0,64,0.00,,,0.00,0,Wunderground v.1.15,2013-02-18 02:54:00,
2013-02-17 19:00:00,50.8,39.5,30.00,SW,232,0.0,1.0,65,0.00,,,0.00,0,Wunderground v.1.15,2013-02-18 03:00:00,
2013-02-17 19:06:00,50.2,39.3,30.00,SW,232,0.0,1.0,66,0.00,,,0.00,0,Wunderground v.1.15,2013-02-18 03:06:00,
2013-02-17 19:12:00,49.7,39.6,30.00,SW,232,0.0,1.0,68,0.00,,,0.00,0,Wunderground v.1.15,2013-02-18 03:12:00,
2013-02-17 19:18:00,49.1,39.0,30.01,SW,232,0.0,1.0,68,0.00,,,0.00,0,Wunderground v.1.15,2013-02-18 03:18:00,
2013-02-17 19:24:00,48.6,38.9,30.01,SW,232,0.0,1.0,69,0.00,,,0.00,0,Wunderground v.1.15,2013-02-18 03:24:00,
2013-02-17 19:29:00,48.1,38.8,30.01,SW,232,0.0,1.0,70,0.00,,,0.00,0,Wunderground v.1.15,2013-02-18 03:29:00,
2013-02-17 19:36:00,47.8,38.5,30.01,SW,232,0.0,1.0,70,0.00,,,0.00,0,Wunderground v.1.15,2013-02-18 03:36:00,
2013-02-17 19:42:00,47.4,38.1,30.01,SW,232,0.0,1.0,70,0.00,,,0.00,0,Wunderground v.1.15,2013-02-18 03:42:00,
2013-02-17 19:47:00,47.2,37.9,30.00,SW,232,0.0,1.0,70,0.00,,,0.00,0,Wunderground v.1.15,2013-02-18 03:47:00,
2013-02-17 19:54:00,46.8,37.9,30.01,SW,232,0.0,1.0,71,0.00,,,0.00,0,Wunderground v.1.15,2013-02-18 03:54:00,
2013-02-17 20:00:00,46.4,37.9,30.01,SW,232,0.0,1.0,72,0.00,,,0.00,0,Wunderground v.1.15,2013-02-18 04:00:00,
2013-02-17 20:06:00,46.0,37.5,30.01,SW,232,0.0,1.0,72,0.00,,,0.00,0,Wunderground v.1.15,2013-02-18 04:06:00,
2013-02-17 20:11:00,45.7,37.2,30.00,SW,232,0.0,1.0,72,0.00,,,0.00,0,Wunderground v.1.15,2013-02-18 04:11:00,
2013-02-17 20:18:00,45.3,37.2,30.01,SW,232,0.0,1.0,73,0.00,,,0.00,0,Wunderground v.1.15,2013-02-18 04:18:00,
2013-02-17 20:24:00,45.0,36.9,30.01,SW,232,0.0,1.0,73,0.00,,,0.00,0,Wunderground v.1.15,2013-02-18 04:24:00,
2013-02-17 20:30:00,44.6,36.5,30.01,SW,232,0.0,1.0,73,0.00,,,0.00,0,Wunderground v.1.15,2013-02-18 04:30:00,
2013-02-17 20:35:00,44.3,36.5,30.01,SW,232,0.0,1.0,74,0.00,,,0.00,0,Wunderground v.1.15,2013-02-18 04:35:00,
2013-02-17 20:42:00,44.0,36.6,30.01,SW,232,0.0,1.0,75,0.00,,,0.00,0,Wunderground v.1.15,2013-02-18 04:42:00,
2013-02-17 20:47:00,43.7,36.3,30.01,SW,232,0.0,1.0,75,0.00,,,0.00,0,Wunderground v.1.15,2013-02-18 04:47:00,
2013-02-17 20:53:00,43.5,36.1,30.01,SW,232,0.0,1.0,75,0.00,,,0.00,0,Wunderground v.1.15,2013-02-18 04:53:00,
2013-02-17 21:00:00,43.3,35.9,30.01,SW,232,0.0,0.0,75,0.00,,,0.00,0,Wunderground v.1.15,2013-02-18 05:00:00,
2013-02-17 21:02:00,43.2,35.8,30.01,SW,232,0.0,0.0,75,0.00,,,0.00,0,Wunderground v.1.15,2013-02-18 05:02:00,
2013-02-17 21:07:00,42.9,35.5,30.01,SW,232,0.0,0.0,75,0.00,,,0.00,0,Wunderground v.1.15,2013-02-18 05:07:00,
2013-02-17 21:12:00,42.8,35.4,30.01,SW,232,0.0,0.0,75,0.00,,,0.00,0,Wunderground v.1.15,2013-02-18 05:12:00,
2013-02-17 21:18:00,42.5,35.5,30.01,SW,232,0.0,0.0,76,0.00,,,0.00,0,Wunderground v.1.15,2013-02-18 05:18:00,
2013-02-17 21:24:00,42.2,35.5,30.02,SW,232,0.0,0.0,77,0.00,,,0.00,0,Wunderground v.1.15,2013-02-18 05:24:00,
2013-02-17 21:30:00,41.9,35.2,30.02,SW,232,0.0,0.0,77,0.00,,,0.00,0,Wunderground v.1.15,2013-02-18 05:30:00,
2013-02-17 21:36:00,41.7,35.3,30.01,SW,232,0.0,0.0,78,0.00,,,0.00,0,Wunderground v.1.15,2013-02-18 05:36:00,
2013-02-17 21:42:00,41.5,35.2,30.02,SW,232,0.0,0.0,78,0.00,,,0.00,0,Wunderground v.1.15,2013-02-18 05:42:00,
2013-02-17 21:48:00,41.3,35.0,30.02,SW,232,0.0,1.0,78,0.00,,,0.00,0,Wunderground v.1.15,2013-02-18 05:48:00,
2013-02-17 21:53:00,41.1,34.8,30.02,SW,232,0.0,0.0,78,0.00,,,0.00,0,Wunderground v.1.15,2013-02-18 05:53:00,
2013-02-17 22:00:00,41.0,36.2,30.03,SW,232,0.0,2.0,83,0.00,,,0.00,0,Wunderground v.1.15,2013-02-18 06:00:00,
2013-02-17 22:05:00,40.8,34.8,30.02,SW,232,0.0,2.0,79,0.00,,,0.00,0,Wunderground v.1.15,2013-02-18 06:05:00,
2013-02-17 22:12:00,40.4,34.4,30.02,SW,232,0.0,2.0,79,0.00,,,0.00,0,Wunderground v.1.15,2013-02-18 06:12:00,
2013-02-17 22:18:00,40.2,34.2,30.02,SW,232,0.0,2.0,79,0.00,,,0.00,0,Wunderground v.1.15,2013-02-18 06:18:00,
2013-02-17 22:24:00,40.0,34.0,30.02,SW,232,0.0,2.0,79,0.00,,,0.00,0,Wunderground v.1.15,2013-02-18 06:24:00,
2013-02-17 22:29:00,39.7,34.0,30.02,SW,232,0.0,2.0,80,0.00,,,0.00,0,Wunderground v.1.15,2013-02-18 06:29:00,
2013-02-17 22:36:00,39.5,33.8,30.02,SW,232,0.0,2.0,80,0.00,,,0.00,0,Wunderground v.1.15,2013-02-18 06:36:00,
2013-02-17 22:42:00,39.4,33.7,30.02,SW,232,0.0,2.0,80,0.00,,,0.00,0,Wunderground v.1.15,2013-02-18 06:42:00,
2013-02-17 22:48:00,39.2,33.9,30.02,SW,232,0.0,2.0,81,0.00,,,0.00,0,Wunderground v.1.15,2013-02-18 06:48:00,
2013-02-17 22:53:00,39.1,33.8,30.02,SW,232,0.0,2.0,81,0.00,,,0.00,0,Wunderground v.1.15,2013-02-18 06:53:00,
2013-02-17 23:00:00,38.9,33.6,30.02,SW,232,0.0,1.0,81,0.00,,,0.00,0,Wunderground v.1.15,2013-02-18 07:00:00,
2013-02-17 23:06:00,38.8,33.5,30.02,SW,232,0.0,1.0,81,0.00,,,0.00,0,Wunderground v.1.15,2013-02-18 07:06:00,
2013-02-17 23:12:00,38.6,33.3,30.02,SW,232,0.0,1.0,81,0.00,,,0.00,0,Wunderground v.1.15,2013-02-18 07:12:00,
2013-02-17 23:17:00,38.5,33.5,30.02,SW,232,0.0,1.0,82,0.00,,,0.00,0,Wunderground v.1.15,2013-02-18 07:17:00,
2013-02-17 23:24:00,38.3,33.3,30.02,SW,232,0.0,1.0,82,0.00,,,0.00,0,Wunderground v.1.15,2013-02-18 07:24:00,
2013-02-17 23:30:00,38.2,33.2,30.02,SW,232,0.0,1.0,82,0.00,,,0.00,0,Wunderground v.1.15,2013-02-18 07:30:00,
2013-02-17 23:36:00,38.1,33.4,30.02,SW,232,0.0,1.0,83,0.00,,,0.00,0,Wunderground v.1.15,2013-02-18 07:36:00,
2013-02-17 23:42:00,38.0,33.3,30.02,SW,232,0.0,1.0,83,0.00,,,0.00,0,Wunderground v.1.15,2013-02-18 07:42:00,
2013-02-17 23:48:00,38.0,33.3,30.02,SW,232,0.0,1.0,83,0.00,,,0.00,0,Wunderground v.1.15,2013-02-18 07:48:00,
2013-02-17 23:54:00,37.9,33.2,30.02,SW,232,0.0,1.0,83,0.00,,,0.00,0,Wunderground v.1.15,2013-02-18 07:54:00,